map of UIO home
Great Circle Mapper logo
UIO - Airport
Location
City:  Quito, Pichincha, Ecuador
Near (Alt.):Tababela
Name:Mitad del Mundo International Airport
ICAO / IATA:SEQM / UIO

Details
Type:Airport (Aerodrome, Airfield)
Use:Public/Civil, International (customs port of entry)
Latitude:006'48"S (-0.113332)
Longitude:7821'31"W (-78.358610)
Elevation:7874 ft (2400 m)
Runways:1
Longest:13451 ft (4100 m), paved

Weather
METAR:SEQM 310100Z 31007KT CAVOK 18/01 Q1025 NOSIG RMK A3028
TAF:SEQM 300920Z 3012/3112 VRB03KT 9999 SCT040
FM301800 36012KT 9999 VCPO SCT036
FM310000 VRB03KT 9999 SCT036 TX24/3018Z TN08/3112Z

Related Locations
Nearby:
Farthest:PKU: 12437 mi / 20015 km
Pekanbaru [Sultan Syarif Kasim II (Simpang Tiga)], Riau, ID

Find:

   beyond  
but within

Other Information
Maps:
NOTAMs:
Links:
Sources:

  
flag of Ecuador   

Sectional Chart

Flight Planning
at skyvector.com

Satellite Image

Google Maps Satellite View

 

Copyright © 2004-2014 Karl L. Swartz. All rights reserved.
The Great Circle Mapper name and logo are trademarks of the Great Circle Mapper.
All other trademarks mentioned herein belong to their respective owners.
Please see credits for attibutions and further copyright information.

  Follow gcmap on Facebook Follow gcmap on Twitter

hCard Microformat

Geo Microformat